Time,TemperatureF,DewpointF,PressureIn,WindDirection,WindDirectionDegrees,WindSpeedMPH,WindSpeedGustMPH,Humidity,HourlyPrecipIn,Conditions,Clouds,dailyrainin,SoftwareType,DateUTC
2013-08-03 00:02:00,66.0,62.0,30.03,SSW,202,5.0,12.0,86,0.00,,,0.00,,2013-08-03 04:02:00,
2013-08-03 00:12:00,66.0,62.0,30.03,NNW,332,5.0,12.0,86,0.00,,,0.00,,2013-08-03 04:12:00,
2013-08-03 00:22:00,66.0,62.0,30.03,NNW,332,5.0,12.0,86,0.00,,,0.00,,2013-08-03 04:22:00,
2013-08-03 00:33:00,66.0,62.0,30.03,NNW,332,5.0,12.0,86,0.00,,,0.00,,2013-08-03 04:33:00,
2013-08-03 00:43:00,66.0,62.0,30.03,NNW,332,5.0,12.0,86,0.00,,,0.00,,2013-08-03 04:43:00,
2013-08-03 01:32:00,66.0,62.0,30.02,SW,234,0.0,11.0,87,0.00,,,0.00,,2013-08-03 05:32:00,
2013-08-03 01:53:00,66.0,62.0,30.02,WSW,241,0.0,13.0,87,0.00,,,0.00,,2013-08-03 05:53:00,
2013-08-03 02:02:00,66.0,62.0,30.02,NNE,30,2.0,9.0,88,0.00,,,0.00,,2013-08-03 06:02:00,
2013-08-03 02:12:00,66.0,62.0,30.03,West,265,1.0,4.0,88,0.00,,,0.00,,2013-08-03 06:12:00,
2013-08-03 02:23:00,66.0,62.0,30.02,West,260,0.0,11.0,88,0.00,,,0.00,,2013-08-03 06:23:00,
2013-08-03 02:33:00,66.0,62.0,30.02,NNW,334,2.0,14.0,87,0.00,,,0.00,,2013-08-03 06:33:00,
2013-08-03 02:42:00,66.0,62.0,30.02,NNW,334,2.0,14.0,87,0.00,,,0.00,,2013-08-03 06:42:00,
2013-08-03 02:52:00,66.0,62.0,30.02,NNW,334,2.0,14.0,87,0.00,,,0.00,,2013-08-03 06:52:00,
2013-08-03 03:02:00,65.0,61.0,30.02,NW,311,1.0,17.0,88,0.00,,,0.00,,2013-08-03 07:02:00,
2013-08-03 03:12:00,65.0,61.0,30.02,WNW,288,1.0,15.0,88,0.00,,,0.00,,2013-08-03 07:12:00,
2013-08-03 03:22:00,64.0,61.0,30.02,NW,317,7.0,16.0,90,0.00,,,0.00,,2013-08-03 07:22:00,
2013-08-03 03:32:00,64.0,61.0,30.02,NW,317,7.0,16.0,90,0.00,,,0.00,,2013-08-03 07:32:00,
2013-08-03 03:43:00,64.0,61.0,30.02,NW,317,7.0,16.0,90,0.00,,,0.00,,2013-08-03 07:43:00,
2013-08-03 03:52:00,64.0,61.0,30.02,NW,317,7.0,16.0,90,0.00,,,0.00,,2013-08-03 07:52:00,
2013-08-03 04:02:00,64.0,61.0,30.02,NW,317,7.0,16.0,90,0.00,,,0.00,,2013-08-03 08:02:00,
2013-08-03 04:22:00,61.0,60.0,30.04,North,360,5.0,15.0,96,0.01,,,0.01,,2013-08-03 08:22:00,
2013-08-03 04:32:00,61.0,60.0,30.04,North,360,5.0,15.0,96,0.01,,,0.01,,2013-08-03 08:32:00,
2013-08-03 04:43:00,61.0,60.0,30.04,North,360,5.0,15.0,96,0.01,,,0.01,,2013-08-03 08:43:00,
2013-08-03 04:52:00,61.0,60.0,30.04,North,360,5.0,15.0,96,0.01,,,0.01,,2013-08-03 08:52:00,
2013-08-03 05:02:00,62.0,61.0,30.04,NW,321,10.0,17.0,97,0.01,,,0.01,,2013-08-03 09:02:00,
2013-08-03 05:12:00,62.0,61.0,30.04,NW,321,10.0,17.0,97,0.01,,,0.01,,2013-08-03 09:12:00,
2013-08-03 05:22:00,61.0,60.0,30.03,NNE,15,7.0,14.0,97,0.00,,,0.01,,2013-08-03 09:22:00,
2013-08-03 05:32:00,61.0,60.0,30.03,NNW,335,0.0,13.0,98,0.00,,,0.01,,2013-08-03 09:32:00,
2013-08-03 05:43:00,61.0,60.0,30.03,NNW,335,0.0,13.0,98,0.00,,,0.01,,2013-08-03 09:43:00,
2013-08-03 05:53:00,61.0,60.0,30.03,NNW,335,0.0,13.0,98,0.00,,,0.01,,2013-08-03 09:53:00,
2013-08-03 06:02:00,61.0,60.0,30.03,NNW,335,0.0,13.0,98,0.00,,,0.01,,2013-08-03 10:02:00,
2013-08-03 06:12:00,61.0,60.0,30.03,NNW,335,0.0,13.0,98,0.00,,,0.01,,2013-08-03 10:12:00,
2013-08-03 06:22:00,61.0,61.0,30.03,WNW,285,1.0,12.0,99,0.01,,,0.02,,2013-08-03 10:22:00,
2013-08-03 06:33:00,61.0,61.0,30.03,NNW,333,6.0,13.0,99,0.01,,,0.02,,2013-08-03 10:33:00,
2013-08-03 06:42:00,61.0,61.0,30.03,NW,312,7.0,11.0,99,0.00,,,0.02,,2013-08-03 10:42:00,
2013-08-03 06:53:00,61.0,61.0,30.03,West,271,2.0,19.0,99,0.00,,,0.02,,2013-08-03 10:53:00,
2013-08-03 07:02:00,61.0,61.0,30.03,WSW,257,0.0,14.0,99,0.00,,,0.02,,2013-08-03 11:02:00,
2013-08-03 07:12:00,61.0,61.0,30.02,NW,315,0.0,12.0,99,0.00,,,0.02,,2013-08-03 11:12:00,
2013-08-03 07:23:00,60.0,60.0,30.02,WNW,284,1.0,12.0,99,0.00,,,0.02,,2013-08-03 11:23:00,
2013-08-03 07:43:00,60.0,60.0,30.02,NNW,335,10.0,12.0,99,0.00,,,0.02,,2013-08-03 11:43:00,
2013-08-03 07:53:00,60.0,60.0,30.02,NNW,344,3.0,12.0,99,0.00,,,0.02,,2013-08-03 11:53:00,
2013-08-03 08:03:00,60.0,60.0,30.03,NNW,328,6.0,13.0,99,0.00,,,0.02,,2013-08-03 12:03:00,
2013-08-03 08:12:00,60.0,60.0,30.03,NNW,328,6.0,13.0,99,0.00,,,0.02,,2013-08-03 12:12:00,
2013-08-03 08:33:00,60.0,60.0,30.04,WNW,283,0.0,11.0,99,0.00,,,0.02,,2013-08-03 12:33:00,
2013-08-03 08:43:00,60.0,60.0,30.04,WNW,283,0.0,11.0,99,0.00,,,0.02,,2013-08-03 12:43:00,
2013-08-03 08:52:00,60.0,60.0,30.04,WNW,283,0.0,11.0,99,0.00,,,0.02,,2013-08-03 12:52:00,
2013-08-03 09:02:00,60.0,60.0,30.03,NNW,331,0.0,10.0,99,0.00,,,0.02,,2013-08-03 13:02:00,
2013-08-03 09:12:00,60.0,60.0,30.03,NNW,331,0.0,10.0,99,0.00,,,0.02,,2013-08-03 13:12:00,
2013-08-03 09:22:00,61.0,61.0,30.03,SW,228,0.0,7.0,99,0.01,,,0.03,,2013-08-03 13:22:00,
2013-08-03 09:33:00,61.0,61.0,30.02,WNW,288,2.0,2.0,100,0.02,,,0.04,,2013-08-03 13:33:00,
2013-08-03 09:43:00,61.0,61.0,30.02,WNW,288,2.0,2.0,100,0.02,,,0.04,,2013-08-03 13:43:00,
2013-08-03 09:52:00,61.0,61.0,30.02,WNW,288,2.0,2.0,100,0.02,,,0.04,,2013-08-03 13:52:00,
2013-08-03 10:02:00,61.0,61.0,30.03,WNW,288,2.0,9.0,99,0.02,,,0.04,,2013-08-03 14:02:00,
2013-08-03 10:13:00,61.0,61.0,30.03,WNW,288,2.0,9.0,99,0.02,,,0.04,,2013-08-03 14:13:00,
2013-08-03 10:22:00,61.0,61.0,30.03,WNW,288,2.0,9.0,99,0.02,,,0.04,,2013-08-03 14:22:00,
2013-08-03 10:33:00,61.0,61.0,30.03,WSW,255,0.0,9.0,99,0.00,,,0.04,,2013-08-03 14:33:00,
2013-08-03 10:43:00,61.0,61.0,30.03,WSW,255,0.0,9.0,99,0.00,,,0.04,,2013-08-03 14:43:00,
2013-08-03 10:52:00,61.0,60.0,30.03,WNW,300,0.0,7.0,98,0.00,,,0.04,,2013-08-03 14:52:00,
2013-08-03 11:02:00,61.0,60.0,30.03,WNW,300,0.0,7.0,98,0.00,,,0.04,,2013-08-03 15:02:00,
2013-08-03 11:12:00,61.0,60.0,30.03,WNW,300,0.0,7.0,98,0.00,,,0.04,,2013-08-03 15:12:00,
2013-08-03 11:23:00,61.0,60.0,30.03,WNW,300,0.0,7.0,98,0.00,,,0.04,,2013-08-03 15:23:00,
2013-08-03 11:32:00,61.0,61.0,30.03,NW,304,2.0,6.0,99,0.00,,,0.04,,2013-08-03 15:32:00,
2013-08-03 11:43:00,61.0,61.0,30.03,NW,304,2.0,6.0,99,0.00,,,0.04,,2013-08-03 15:43:00,
2013-08-03 11:53:00,61.0,61.0,30.03,NW,304,2.0,6.0,99,0.00,,,0.04,,2013-08-03 15:53:00,
2013-08-03 12:02:00,62.0,61.0,30.03,NW,311,6.0,6.0,98,0.00,,,0.04,,2013-08-03 16:02:00,
2013-08-03 12:13:00,62.0,61.0,30.03,NW,311,6.0,6.0,98,0.00,,,0.04,,2013-08-03 16:13:00,
2013-08-03 12:23:00,62.0,61.0,30.03,NW,311,6.0,6.0,98,0.00,,,0.04,,2013-08-03 16:23:00,
2013-08-03 12:33:00,61.0,60.0,30.03,NW,314,4.0,10.0,98,0.00,,,0.04,,2013-08-03 16:33:00,
2013-08-03 12:43:00,61.0,60.0,30.03,NW,314,4.0,10.0,98,0.00,,,0.04,,2013-08-03 16:43:00,
2013-08-03 12:53:00,61.0,61.0,30.03,WNW,296,0.0,9.0,99,0.00,,,0.04,,2013-08-03 16:53:00,
2013-08-03 13:03:00,61.0,61.0,30.03,WNW,296,0.0,9.0,99,0.00,,,0.04,,2013-08-03 17:03:00,
2013-08-03 13:12:00,61.0,61.0,30.03,West,263,0.0,6.0,99,0.03,,,0.07,,2013-08-03 17:12:00,
2013-08-03 13:22:00,61.0,61.0,30.03,NNW,336,5.0,7.0,99,0.04,,,0.08,,2013-08-03 17:22:00,
2013-08-03 13:32:00,61.0,61.0,30.03,WNW,287,2.0,9.0,99,0.08,,,0.12,,2013-08-03 17:32:00,
2013-08-03 13:52:00,61.0,61.0,30.03,WSW,252,4.0,9.0,100,0.11,,,0.15,,2013-08-03 17:52:00,
2013-08-03 14:02:00,61.0,61.0,30.04,WNW,296,3.0,8.0,100,0.12,,,0.17,,2013-08-03 18:02:00,
2013-08-03 14:12:00,61.0,61.0,30.04,WNW,296,3.0,8.0,100,0.12,,,0.17,,2013-08-03 18:12:00,
2013-08-03 14:22:00,60.0,60.0,30.04,NW,325,2.0,10.0,100,0.15,,,0.23,,2013-08-03 18:22:00,
2013-08-03 14:32:00,60.0,60.0,30.04,NW,325,2.0,10.0,100,0.15,,,0.23,,2013-08-03 18:32:00,
2013-08-03 14:43:00,60.0,60.0,30.04,NW,325,2.0,10.0,100,0.15,,,0.23,,2013-08-03 18:43:00,
2013-08-03 14:53:00,61.0,61.0,30.03,North,355,3.0,6.0,100,0.12,,,0.27,,2013-08-03 18:53:00,
2013-08-03 15:03:00,61.0,61.0,30.04,NW,319,2.0,10.0,100,0.12,,,0.27,,2013-08-03 19:03:00,
2013-08-03 15:12:00,61.0,61.0,30.04,NW,319,2.0,10.0,100,0.12,,,0.27,,2013-08-03 19:12:00,
2013-08-03 15:22:00,61.0,61.0,30.02,WNW,302,0.0,11.0,100,0.05,,,0.28,,2013-08-03 19:22:00,
2013-08-03 15:32:00,61.0,61.0,30.02,West,260,0.0,5.0,100,0.02,,,0.28,,2013-08-03 19:32:00,
2013-08-03 15:43:00,61.0,61.0,30.02,West,260,0.0,5.0,100,0.02,,,0.28,,2013-08-03 19:43:00,
2013-08-03 15:52:00,61.0,61.0,30.02,SW,236,0.0,13.0,100,0.01,,,0.28,,2013-08-03 19:52:00,
2013-08-03 16:02:00,61.0,61.0,30.01,West,281,3.0,12.0,100,0.00,,,0.28,,2013-08-03 20:02:00,
2013-08-03 16:12:00,61.0,61.0,30.01,West,281,3.0,12.0,100,0.00,,,0.28,,2013-08-03 20:12:00,
2013-08-03 16:32:00,62.0,62.0,30.01,West,271,0.0,6.0,100,0.00,,,0.28,,2013-08-03 20:32:00,
2013-08-03 16:42:00,62.0,62.0,30.01,West,271,0.0,6.0,100,0.00,,,0.28,,2013-08-03 20:42:00,
2013-08-03 16:52:00,62.0,62.0,30.01,West,271,0.0,6.0,100,0.00,,,0.28,,2013-08-03 20:52:00,
2013-08-03 17:02:00,63.0,62.0,30.00,SW,215,0.0,7.0,97,0.00,,,0.28,,2013-08-03 21:02:00,
2013-08-03 17:12:00,63.0,62.0,30.00,SW,215,0.0,7.0,97,0.00,,,0.28,,2013-08-03 21:12:00,
2013-08-03 17:22:00,63.0,62.0,30.00,SW,215,0.0,7.0,97,0.00,,,0.28,,2013-08-03 21:22:00,
2013-08-03 17:32:00,64.0,63.0,30.00,West,271,0.0,10.0,95,0.00,,,0.28,,2013-08-03 21:32:00,
2013-08-03 17:42:00,64.0,62.0,30.00,SW,225,0.0,11.0,94,0.00,,,0.28,,2013-08-03 21:42:00,
2013-08-03 17:52:00,64.0,62.0,30.00,SW,225,0.0,11.0,94,0.00,,,0.28,,2013-08-03 21:52:00,
2013-08-03 18:02:00,64.0,62.0,30.00,SW,225,0.0,11.0,94,0.00,,,0.28,,2013-08-03 22:02:00,
2013-08-03 18:12:00,66.0,64.0,30.01,NNW,340,6.0,10.0,92,0.00,,,0.28,,2013-08-03 22:12:00,
2013-08-03 18:22:00,66.0,64.0,30.01,NNW,340,6.0,10.0,92,0.00,,,0.28,,2013-08-03 22:22:00,
2013-08-03 18:33:00,64.0,62.0,30.01,SW,223,2.0,8.0,94,0.00,,,0.28,,2013-08-03 22:33:00,
2013-08-03 18:43:00,64.0,62.0,30.01,SW,223,2.0,8.0,94,0.00,,,0.28,,2013-08-03 22:43:00,
2013-08-03 18:52:00,64.0,62.0,30.02,WNW,298,3.0,10.0,94,0.00,,,0.28,,2013-08-03 22:52:00,
2013-08-03 19:02:00,64.0,62.0,30.02,WNW,298,3.0,10.0,94,0.00,,,0.28,,2013-08-03 23:02:00,
2013-08-03 19:12:00,64.0,63.0,30.02,WNW,295,0.0,6.0,95,0.00,,,0.28,,2013-08-03 23:12:00,
2013-08-03 19:22:00,64.0,63.0,30.02,WNW,295,0.0,6.0,95,0.00,,,0.28,,2013-08-03 23:22:00,
2013-08-03 19:32:00,64.0,63.0,30.02,WNW,295,0.0,6.0,95,0.00,,,0.28,,2013-08-03 23:32:00,
2013-08-03 19:43:00,63.0,62.0,30.01,NW,305,0.0,5.0,96,0.00,,,0.28,,2013-08-03 23:43:00,
2013-08-03 19:52:00,63.0,62.0,30.02,WNW,287,0.0,0.0,97,0.00,,,0.28,,2013-08-03 23:52:00,
2013-08-03 20:02:00,63.0,62.0,30.02,WNW,287,0.0,0.0,97,0.00,,,0.28,,2013-08-04 00:02:00,
2013-08-03 20:12:00,63.0,62.0,30.02,WNW,287,0.0,0.0,97,0.00,,,0.28,,2013-08-04 00:12:00,
2013-08-03 20:22:00,62.0,61.0,30.02,West,267,0.0,6.0,98,0.00,,,0.28,,2013-08-04 00:22:00,
2013-08-03 20:32:00,62.0,61.0,30.02,West,267,0.0,2.0,98,0.00,,,0.28,,2013-08-04 00:32:00,
2013-08-03 20:42:00,62.0,61.0,30.02,West,267,0.0,2.0,98,0.00,,,0.28,,2013-08-04 00:42:00,
2013-08-03 20:53:00,62.0,61.0,30.02,West,267,0.0,2.0,98,0.00,,,0.28,,2013-08-04 00:53:00,
2013-08-03 21:02:00,62.0,61.0,30.02,NW,315,0.0,4.0,98,0.00,,,0.28,,2013-08-04 01:02:00,
2013-08-03 21:12:00,62.0,61.0,30.02,NW,315,0.0,4.0,98,0.00,,,0.28,,2013-08-04 01:12:00,
2013-08-03 21:22:00,62.0,61.0,30.02,NW,315,0.0,4.0,98,0.00,,,0.28,,2013-08-04 01:22:00,
2013-08-03 21:32:00,62.0,61.0,30.02,NW,315,0.0,4.0,98,0.00,,,0.28,,2013-08-04 01:32:00,
2013-08-03 21:42:00,62.0,61.0,30.02,NW,315,0.0,4.0,98,0.00,,,0.28,,2013-08-04 01:42:00,
2013-08-03 22:03:00,62.0,62.0,30.03,West,265,5.0,5.0,100,0.00,,,0.28,,2013-08-04 02:03:00,
2013-08-03 22:12:00,62.0,62.0,30.03,West,265,5.0,5.0,100,0.00,,,0.28,,2013-08-04 02:12:00,
2013-08-03 22:22:00,62.0,62.0,30.03,West,265,5.0,5.0,100,0.00,,,0.28,,2013-08-04 02:22:00,
2013-08-03 22:32:00,62.0,62.0,30.03,West,265,5.0,5.0,100,0.00,,,0.28,,2013-08-04 02:32:00,
2013-08-03 22:42:00,62.0,62.0,30.03,West,265,5.0,5.0,100,0.00,,,0.28,,2013-08-04 02:42:00,
2013-08-03 23:02:00,61.0,61.0,30.04,WNW,284,0.0,0.0,99,0.00,,,0.28,,2013-08-04 03:02:00,
2013-08-03 23:12:00,61.0,61.0,30.04,WNW,284,0.0,0.0,99,0.00,,,0.28,,2013-08-04 03:12:00,
2013-08-03 23:22:00,61.0,61.0,30.04,WNW,284,0.0,0.0,99,0.00,,,0.28,,2013-08-04 03:22:00,
2013-08-03 23:32:00,61.0,61.0,30.04,WNW,293,0.0,4.0,99,0.00,,,0.28,,2013-08-04 03:32:00,
2013-08-03 23:42:00,61.0,61.0,30.04,WNW,293,0.0,4.0,99,0.00,,,0.28,,2013-08-04 03:42:00,
2013-08-03 23:52:00,61.0,61.0,30.04,WNW,293,0.0,4.0,99,0.00,,,0.28,,2013-08-04 03:52:00,